Cloud_Cover
0 0 0 0 0 0 0 0 0 0 0 0 0 0 0 0 0 0 0 0 0 32 68 76 76 76 80 80 80 80 88 92 92 92 92 92 92 92 92 92 92 92 92 92 92 92 92 92 92 92 92 92 92 92 92 92 92 92 92 92 92 92 92 92 92 92 92 92 92
0 0 0 0 0 0 0 0 0 0 0 0 0 0 0 0 0 0 0 0 0 0 24 76 76 80 80 80 88 88 88 88 92 92 92 92 92 92 92 92 92 92 92 92 92 92 92 92 92 92 92 92 92 92 92 92 92 92 92 92 92 92 92 92 92 92 92 92 92
0 0 0 0 0 0 0 0 0 0 0 0 0 0 0 0 0 0 0 0 0 0 12 64 76 76 80 80 80 88 88 88 88 92 92 92 92 92 92 92 92 92 92 92 92 92 92 92 92 92 92 88 92 92 92 92 92 92 92 92 92 92 92 92 92 92 92 92 92
0 0 0 0 0 0 0 0 0 0 0 0 0 0 0 0 0 0 0 0 0 0 8 32 64 76 80 80 80 80 88 88 88 88 92 92 92 92 92 92 92 92 92 92 92 92 92 92 92 92 92 88 92 92 92 92 92 92 92 92 92 92 92 92 92 92 92 92 92
0 0 0 0 0 0 0 0 0 0 0 0 0 0 0 0 0 0 0 0 0 0 0 0 48 68 76 76 80 80 88 88 88 88 92 92 92 92 92 92 92 92 92 92 92 92 92 92 92 92 92 92 92 92 92 92 92 92 92 92 92 92 92 92 92 92 92 92 92
0 0 0 0 0 0 0 0 0 0 0 0 0 0 0 0 0 0 0 0 0 0 0 0 20 36 56 76 76 76 80 88 88 88 88 92 92 92 92 92 92 92 92 92 92 92 92 92 92 92 92 92 92 92 92 92 92 92 92 92 92 92 92 92 92 88 88 92 92
0 0 0 0 0 0 0 0 0 0 0 0 0 0 0 8 0 0 0 0 0 0 0 0 0 12 32 64 68 76 76 80 80 88 88 88 88 92 92 92 92 92 92 92 92 92 92 92 92 92 92 92 92 92 92 92 92 92 92 92 92 92 92 92 92 88 88 92 92
0 0 0 0 0 0 0 0 0 0 0 0 0 0 0 0 8 0 0 0 12 32 44 48 12 0 20 44 56 68 76 80 80 80 88 88 88 88 92 92 92 92 92 92 92 92 92 92 92 92 92 92 92 92 88 92 92 92 92 92 92 92 92 92 92 92 92 92 92
0 0 0 0 0 0 0 0 0 0 0 0 0 0 0 0 8 8 8 12 32 48 64 76 20 0 0 20 44 64 68 80 80 80 80 88 88 88 92 92 92 92 92 92 92 88 88 92 92 92 92 88 88 88 88 88 92 88 88 88 88 88 88 92 92 92 92 92 92
0 0 0 0 0 0 0 0 0 0 0 0 0 0 0 0 0 0 8 36 24 44 68 76 20 0 0 0 24 48 68 76 76 80 80 80 80 88 88 92 92 92 92 92 92 88 80 80 88 92 92 92 92 88 88 88 88 88 88 88 88 88 92 92 92 92 92 92 92
0 0 0 0 0 0 0 0 0 0 0 0 0 0 0 0 0 0 0 0 12 32 44 12 8 0 0 0 12 36 64 68 76 76 80 80 80 80 88 88 88 88 92 92 92 92 92 88 80 88 92 92 92 92 92 88 80 88 88 92 92 92 92 92 92 92 92 92 92
0 0 0 0 0 0 0 0 0 0 0 0 0 0 0 0 0 0 8 8 48 56 36 12 0 0 0 0 0 32 64 56 76 76 76 76 80 80 80 88 88 88 88 88 92 92 92 92 92 88 80 80 88 92 88 80 80 80 80 88 92 92 92 92 92 92 92 92 92
0 0 0 0 0 0 0 0 0 0 0 0 0 0 0 0 0 8 20 32 64 64 48 36 8 0 0 0 0 12 36 48 64 80 88 68 76 76 80 80 88 88 88 88 88 92 92 92 92 92 88 80 80 80 80 88 76 76 80 80 88 92 92 92 92 92 92 92 92
0 0 0 0 0 0 0 0 0 0 0 0 0 0 0 0 0 0 8 24 44 44 32 24 8 0 0 0 0 12 24 36 48 76 88 80 68 68 76 80 80 80 88 88 88 88 88 88 92 88 88 92 88 88 88 92 80 80 80 88 88 92 92 92 92 92 92 92 92
0 0 0 0 0 0 0 0 0 0 0 0 0 0 0 0 0 0 0 8 48 48 32 12 0 0 0 0 0 12 24 36 44 64 80 68 76 68 68 76 76 80 80 80 88 88 88 88 88 92 92 92 92 92 92 88 88 88 88 80 80 80 88 92 92 92 92 92 92
0 0 0 0 0 0 0 0 0 0 0 0 0 0 0 0 0 0 0 0 56 48 20 0 0 0 0 0 0 12 32 64 56 64 68 76 76 76 76 68 68 76 80 80 80 88 88 88 88 88 92 92 92 92 92 88 88 88 88 80 80 80 80 80 88 88 92 92 92
0 0 0 0 0 0 0 0 0 0 0 0 0 0 0 0 0 0 0 0 24 20 0 0 0 0 0 0 0 8 24 56 76 76 76 88 76 76 76 64 64 68 76 80 80 80 80 88 88 88 88 88 88 92 92 92 88 88 88 92 88 80 80 80 88 88 88 88 92
0 0 0 0 0 0 0 0 0 0 0 0 0 0 0 0 0 0 0 0 0 0 0 0 0 0 0 0 0 0 12 36 44 64 80 80 76 80 88 76 64 64 68 68 76 80 80 80 88 88 88 88 88 88 92 92 88 88 88 92 88 88 88 80 88 92 88 88 92
0 0 0 0 0 0 0 0 0 0 0 0 0 0 0 0 0 0 0 0 0 0 0 0 0 0 0 0 0 0 0 20 12 44 76 80 76 80 88 88 56 56 56 68 68 76 80 80 80 88 88 88 88 88 88 88 88 88 88 92 80 88 92 88 92 92 92 88 92
0 0 0 0 0 0 0 0 0 0 0 0 0 0 0 0 0 0 0 0 0 0 0 0 0 0 0 0 0 0 0 0 12 24 36 44 68 80 80 88 56 44 48 56 64 68 76 76 80 80 80 80 80 88 88 88 88 88 88 88 88 88 92 92 92 92 88 88 92
0 0 0 0 0 0 0 0 0 0 0 0 0 0 0 0 0 0 0 0 0 0 0 0 0 0 0 0 0 0 0 0 0 24 36 20 48 76 80 80 48 36 36 44 48 64 68 68 76 76 76 76 80 80 80 88 80 88 88 88 88 88 92 88 92 92 92 92 92
0 0 0 0 0 0 0 0 0 0 0 0 0 0 0 0 0 0 0 0 0 0 0 0 0 0 0 0 0 0 0 0 0 20 32 24 64 76 80 80 68 44 20 32 36 48 56 68 68 76 76 76 76 80 80 80 76 80 88 80 88 88 88 80 88 88 92 92 92
0 0 0 0 0 0 0 0 0 0 0 8 12 8 0 0 0 0 0 0 0 0 0 0 0 0 0 0 0 0 0 0 0 0 12 32 56 76 80 80 80 44 8 12 24 32 36 56 64 68 68 68 76 76 76 76 80 76 80 88 80 80 80 76 80 88 88 92 92
0 0 0 0 0 0 0 0 0 0 0 8 12 12 0 0 0 0 0 0 0 0 0 0 0 0 0 0 0 0 0 0 0 0 8 20 64 80 80 80 80 48 12 0 8 12 24 32 48 56 64 68 68 68 68 76 68 76 80 76 80 80 80 76 76 76 76 88 92
0 0 0 0 0 8 8 0 0 0 0 8 8 12 12 20 8 0 0 0 0 0 0 0 0 0 0 0 0 0 0 0 0 0 0 0 36 56 56 32 68 76 48 0 0 0 8 20 32 32 36 56 64 68 64 56 68 68 68 68 80 76 68 64 68 68 68 68 68
0 0 0 0 8 12 12 8 0 0 0 0 12 24 24 20 12 8 0 0 0 0 0 0 0 0 0 0 0 0 0 0 0 0 0 0 8 12 12 8 64 80 64 0 0 0 0 0 0 8 12 32 48 56 56 64 64 64 68 68 68 64 64 68 68 64 64 68 68
0 0 0 0 8 12 12 8 0 0 8 20 24 32 32 24 24 12 0 0 0 0 0 0 0 0 0 0 0 0 0 0 0 0 0 0 0 0 0 0 20 56 64 12 0 0 0 0 0 0 0 8 20 36 48 44 64 64 56 56 48 56 64 64 68 68 68 64 56
0 0 0 0 8 8 8 12 0 0 0 8 20 20 20 48 44 32 20 0 0 0 0 0 0 0 0 0 0 0 0 0 0 0 0 0 0 0 0 0 32 44 44 48 12 0 0 0 0 0 0 0 0 8 20 36 48 48 56 64 56 56 48 48 56 56 56 56 64
0 0 0 8 8 8 8 20 8 0 0 0 0 8 8 8 24 20 8 8 0 0 0 0 0 0 0 0 0 0 0 0 0 0 0 0 0 0 0 0 0 12 36 80 20 0 0 0 0 0 0 0 0 0 0 8 24 36 48 36 32 36 44 48 44 44 48 56 48
0 0 0 0 8 8 8 8 0 0 0 0 0 0 12 32 12 0 0 0 0 0 0 0 0 0 0 0 0 0 0 0 0 0 0 0 0 0 0 0 0 36 64 8 0 0 0 0 0 0 0 0 0 0 0 0 0 12 12 8 24 32 32 32 44 44 44 36 44
0 0 0 0 8 8 12 12 0 0 0 0 0 0 12 24 8 0 0 0 0 0 0 0 0 0 0 0 0 0 0 0 0 0 0 0 0 0 0 0 0 12 20 0 64 36 0 0 0 0 0 0 0 0 0 0 0 0 0 0 0 8 20 24 20 24 36 44 36
0 0 0 8 0 8 8 8 0 0 0 0 0 0 0 0 0 0 0 0 0 0 0 0 0 0 0 0 0 0 0 0 0 0 0 0 0 0 0 0 0 0 0 0 56 48 12 0 0 0 0 0 0 0 0 0 0 0 0 0 0 0 0 8 20 20 20 24 12
0 0 0 8 8 8 0 0 0 0 0 0 0 0 0 0 0 0 0 0 0 0 0 0 0 0 0 0 0 0 0 0 0 0 0 0 0 0 0 0 0 0 0 0 56 56 20 0 0 0 0 0 0 0 0 0 0 0 0 0 0 0 0 0 0 8 12 12 12
0 0 0 12 8 8 0 0 0 0 0 8 0 0 0 0 0 0 0 0 0 0 0 0 0 0 0 0 0 0 0 0 0 0 0 0 0 0 0 0 0 0 0 0 48 64 48 0 0 0 0 0 0 0 0 0 0 0 0 0 0 0 0 0 0 0 0 0 0
0 0 8 12 12 8 0 0 0 0 0 0 0 0 0 0 0 0 0 0 0 0 0 0 0 0 0 0 0 0 0 0 0 0 0 0 0 0 0 0 0 0 0 0 8 36 48 0 0 0 0 0 0 0 0 0 0 0 0 0 0 0 0 0 0 0 0 0 0
0 0 8 8 12 8 8 0 0 0 0 0 0 0 0 0 0 0 0 0 0 0 0 0 0 0 0 0 0 0 0 0 0 0 0 0 0 0 0 0 0 0 0 0 0 8 12 0 0 0 0 0 0 0 0 0 0 0 0 0 0 0 0 0 0 0 0 0 0
0 0 0 8 8 8 8 0 8 8 8 0 0 0 0 0 0 0 0 0 0 0 0 0 0 0 0 0 0 0 0 0 0 0 0 0 0 0 0 0 0 0 0 0 0 0 0 0 0 0 0 0 0 0 0 0 0 0 0 0 0 0 0 0 0 0 0 0 0
0 0 0 0 8 8 8 0 0 0 0 0 0 0 0 0 0 0 0 0 0 0 0 0 0 0 0 0 0 0 0 0 0 0 8 8 8 0 0 0 0 0 0 0 0 0 0 0 0 0 0 0 0 0 0 0 0 0 0 0 0 0 0 0 0 0 0 0 0
0 0 0 0 8 8 8 0 0 0 0 0 0 0 0 0 0 0 0 0 0 0 0 0 0 0 0 0 0 0 0 0 0 0 0 8 8 8 0 0 0 0 0 0 0 0 0 0 0 0 0 0 0 0 0 0 0 0 0 0 0 0 0 0 0 0 0 0 0
0 0 0 0 8 8 0 0 0 0 0 0 0 0 0 0 0 0 0 0 0 0 0 0 0 0 0 0 0 0 0 0 0 0 0 8 12 12 0 0 0 0 0 0 0 0 0 0 0 0 0 0 0 0 0 0 0 0 0 0 0 0 0 0 0 0 0 0 0
0 0 0 0 0 8 0 0 0 0 0 0 0 0 0 0 0 0 0 0 0 0 0 0 0 0 0 0 0 0 0 0 0 0 0 8 8 8 0 0 0 0 0 0 0 0 0 0 0 0 0 0 0 0 0 0 0 0 0 0 0 0 0 0 0 0 0 0 0